Time,TemperatureF,DewpointF,PressureIn,WindDirection,WindDirectionDegrees,WindSpeedMPH,WindSpeedGustMPH,Humidity,HourlyPrecipIn,Conditions,Clouds,dailyrainin,SolarRadiationWatts/m^2,SoftwareType,DateUTC
2013-01-22 00:02:00,14.0,13.0,-100.00,NNE,14,2.0,5.0,94,-99.99,,,0.00,0.000000,,2013-01-22 07:02:00,
2013-01-22 00:11:00,14.0,13.0,-100.00,NNE,14,2.0,5.0,94,-99.99,,,0.00,0.000000,,2013-01-22 07:11:00,
2013-01-22 00:32:00,18.0,17.0,-100.00,North,353,4.0,5.0,97,-99.99,,,0.00,0.000000,,2013-01-22 07:32:00,
2013-01-22 00:42:00,18.0,17.0,-100.00,North,353,4.0,5.0,97,-99.99,,,0.00,0.000000,,2013-01-22 07:42:00,
2013-01-22 00:52:00,18.0,17.0,-100.00,North,353,4.0,5.0,97,-99.99,,,0.00,0.000000,,2013-01-22 07:52:00,
2013-01-22 01:02:00,18.0,17.0,-100.00,North,353,4.0,5.0,97,-99.99,,,0.00,0.000000,,2013-01-22 08:02:00,
2013-01-22 01:11:00,18.0,17.0,-100.00,North,353,4.0,5.0,97,-99.99,,,0.00,0.000000,,2013-01-22 08:11:00,
2013-01-22 01:42:00,19.0,19.0,-100.00,NNW,342,3.0,5.0,97,-99.99,,,0.00,0.000000,,2013-01-22 08:42:00,
2013-01-22 01:52:00,19.0,19.0,-100.00,NNW,342,3.0,5.0,97,-99.99,,,0.00,0.000000,,2013-01-22 08:52:00,
2013-01-22 02:02:00,19.0,19.0,-100.00,NNW,342,3.0,5.0,97,-99.99,,,0.00,0.000000,,2013-01-22 09:02:00,
2013-01-22 02:11:00,19.0,19.0,-100.00,NNW,342,3.0,5.0,97,-99.99,,,0.00,0.000000,,2013-01-22 09:11:00,
2013-01-22 02:42:00,19.0,18.0,-100.00,NNW,329,3.0,4.0,96,-99.99,,,-99.99,0.000000,,2013-01-22 09:42:00,
2013-01-22 02:52:00,19.0,18.0,-100.00,NNW,329,3.0,4.0,96,-99.99,,,-99.99,0.000000,,2013-01-22 09:52:00,
2013-01-22 03:02:00,19.0,18.0,-100.00,NNW,329,3.0,4.0,96,-99.99,,,-99.99,0.000000,,2013-01-22 10:02:00,
2013-01-22 03:42:00,20.0,19.0,-100.00,NW,314,2.0,4.0,99,-99.99,,,0.00,0.000000,,2013-01-22 10:42:00,
2013-01-22 03:52:00,20.0,19.0,-100.00,NW,314,2.0,4.0,99,-99.99,,,0.00,0.000000,,2013-01-22 10:52:00,
2013-01-22 04:02:00,20.0,19.0,-100.00,NW,314,2.0,4.0,99,-99.99,,,0.00,0.000000,,2013-01-22 11:02:00,
2013-01-22 04:12:00,20.0,19.0,-100.00,NW,314,2.0,4.0,99,-99.99,,,0.00,0.000000,,2013-01-22 11:12:00,
2013-01-22 04:42:00,16.0,15.0,-100.00,NW,317,3.0,5.0,95,-99.99,,,-99.99,0.000000,,2013-01-22 11:42:00,
2013-01-22 04:53:00,16.0,15.0,-100.00,NW,317,3.0,5.0,95,-99.99,,,-99.99,0.000000,,2013-01-22 11:53:00,
2013-01-22 05:03:00,16.0,15.0,-100.00,NW,317,3.0,5.0,95,-99.99,,,-99.99,0.000000,,2013-01-22 12:03:00,
2013-01-22 05:12:00,16.0,15.0,-100.00,NW,317,3.0,5.0,95,-99.99,,,-99.99,0.000000,,2013-01-22 12:12:00,
2013-01-22 05:43:00,17.0,16.0,-100.00,North,4,2.0,3.0,96,-99.99,,,-99.99,0.000000,,2013-01-22 12:43:00,
2013-01-22 05:53:00,17.0,16.0,-100.00,North,4,2.0,3.0,96,-99.99,,,-99.99,0.000000,,2013-01-22 12:53:00,
2013-01-22 06:03:00,17.0,16.0,-100.00,North,4,2.0,3.0,96,-99.99,,,-99.99,0.000000,,2013-01-22 13:03:00,
2013-01-22 06:33:00,17.0,16.0,-100.00,NW,305,2.0,4.0,95,-99.99,,,-99.99,0.000000,,2013-01-22 13:33:00,
2013-01-22 06:43:00,17.0,16.0,-100.00,NW,305,2.0,4.0,95,-99.99,,,-99.99,0.000000,,2013-01-22 13:43:00,
2013-01-22 06:53:00,17.0,16.0,-100.00,NW,305,2.0,4.0,95,-99.99,,,-99.99,0.000000,,2013-01-22 13:53:00,
2013-01-22 07:02:00,17.0,16.0,-100.00,NW,305,2.0,4.0,95,-99.99,,,-99.99,0.000000,,2013-01-22 14:02:00,
2013-01-22 07:12:00,17.0,16.0,-100.00,NW,305,2.0,4.0,95,-99.99,,,-99.99,0.000000,,2013-01-22 14:12:00,
2013-01-22 07:43:00,15.0,14.0,-100.00,NNW,341,2.0,3.0,94,-99.99,,,0.00,0.000000,,2013-01-22 14:43:00,
2013-01-22 07:53:00,15.0,14.0,-100.00,NNW,341,2.0,3.0,94,-99.99,,,0.00,0.000000,,2013-01-22 14:53:00,
2013-01-22 08:03:00,15.0,14.0,-100.00,NNW,341,2.0,3.0,94,-99.99,,,0.00,0.000000,,2013-01-22 15:03:00,
2013-01-22 08:12:00,15.0,14.0,-100.00,NNW,341,2.0,3.0,94,-99.99,,,0.00,0.000000,,2013-01-22 15:12:00,
2013-01-22 08:43:00,14.0,12.0,-100.00,NW,322,2.0,3.0,92,-99.99,,,-99.99,1.630000,,2013-01-22 15:43:00,
2013-01-22 08:53:00,14.0,12.0,-100.00,NW,322,2.0,3.0,92,-99.99,,,-99.99,1.630000,,2013-01-22 15:53:00,
2013-01-22 09:03:00,14.0,12.0,-100.00,NW,322,2.0,3.0,92,-99.99,,,-99.99,1.630000,,2013-01-22 16:03:00,
2013-01-22 09:12:00,14.0,12.0,-100.00,NW,322,2.0,3.0,92,-99.99,,,-99.99,1.630000,,2013-01-22 16:12:00,
2013-01-22 09:43:00,13.0,11.0,-100.00,NNW,335,2.0,4.0,92,-99.99,,,0.00,49.740002,,2013-01-22 16:43:00,
2013-01-22 09:53:00,13.0,11.0,-100.00,NNW,335,2.0,4.0,92,-99.99,,,0.00,49.740002,,2013-01-22 16:53:00,
2013-01-22 10:03:00,13.0,11.0,-100.00,NNW,335,2.0,4.0,92,-99.99,,,0.00,49.740002,,2013-01-22 17:03:00,
2013-01-22 10:12:00,13.0,11.0,-100.00,NNW,335,2.0,4.0,92,-99.99,,,0.00,49.740002,,2013-01-22 17:12:00,
2013-01-22 10:43:00,16.0,14.0,-100.00,North,0,0.0,0.0,93,-99.99,,,0.00,110.989998,,2013-01-22 17:43:00,
2013-01-22 10:53:00,16.0,14.0,-100.00,North,0,0.0,0.0,93,-99.99,,,0.00,110.989998,,2013-01-22 17:53:00,
2013-01-22 11:03:00,16.0,14.0,-100.00,North,0,0.0,0.0,93,-99.99,,,0.00,110.989998,,2013-01-22 18:03:00,
2013-01-22 11:12:00,16.0,14.0,-100.00,North,0,0.0,0.0,93,-99.99,,,0.00,110.989998,,2013-01-22 18:12:00,
2013-01-22 11:43:00,16.0,15.0,-100.00,North,0,0.0,0.0,93,-99.99,,,0.00,193.850006,,2013-01-22 18:43:00,
2013-01-22 11:53:00,16.0,15.0,-100.00,North,0,0.0,0.0,93,-99.99,,,0.00,193.850006,,2013-01-22 18:53:00,
2013-01-22 12:03:00,16.0,15.0,-100.00,North,0,0.0,0.0,93,-99.99,,,0.00,193.850006,,2013-01-22 19:03:00,
2013-01-22 12:13:00,16.0,15.0,-100.00,North,0,0.0,0.0,93,-99.99,,,0.00,193.850006,,2013-01-22 19:13:00,
2013-01-22 12:43:00,19.0,18.0,-100.00,NW,322,1.0,2.0,95,-99.99,,,-99.99,250.220001,,2013-01-22 19:43:00,
2013-01-22 12:54:00,19.0,18.0,-100.00,NW,322,1.0,2.0,95,-99.99,,,-99.99,250.220001,,2013-01-22 19:54:00,
2013-01-22 13:03:00,19.0,18.0,-100.00,NW,322,1.0,2.0,95,-99.99,,,-99.99,250.220001,,2013-01-22 20:03:00,
2013-01-22 13:12:00,19.0,18.0,-100.00,NW,322,1.0,2.0,95,-99.99,,,-99.99,250.220001,,2013-01-22 20:12:00,
2013-01-22 13:42:00,21.0,20.0,-100.00,WNW,292,1.0,3.0,96,-99.99,,,0.00,276.140015,,2013-01-22 20:42:00,
2013-01-22 13:53:00,21.0,20.0,-100.00,WNW,292,1.0,3.0,96,-99.99,,,0.00,276.140015,,2013-01-22 20:53:00,
2013-01-22 14:03:00,21.0,20.0,-100.00,WNW,292,1.0,3.0,96,-99.99,,,0.00,276.140015,,2013-01-22 21:03:00,
2013-01-22 14:12:00,21.0,20.0,-100.00,WNW,292,1.0,3.0,96,-99.99,,,0.00,276.140015,,2013-01-22 21:12:00,
2013-01-22 14:43:00,23.0,22.0,-100.00,WNW,298,2.0,4.0,97,-99.99,,,0.00,332.850006,,2013-01-22 21:43:00,
2013-01-22 14:53:00,23.0,22.0,-100.00,WNW,298,2.0,4.0,97,-99.99,,,0.00,332.850006,,2013-01-22 21:53:00,
2013-01-22 15:02:00,23.0,22.0,-100.00,WNW,298,2.0,4.0,97,-99.99,,,0.00,332.850006,,2013-01-22 22:02:00,
2013-01-22 15:12:00,23.0,22.0,-100.00,WNW,298,2.0,4.0,97,-99.99,,,0.00,332.850006,,2013-01-22 22:12:00,
2013-01-22 15:43:00,22.0,22.0,-100.00,North,2,0.0,2.0,98,-99.99,,,0.00,145.860001,,2013-01-22 22:43:00,
2013-01-22 15:53:00,22.0,22.0,-100.00,North,2,0.0,2.0,98,-99.99,,,0.00,145.860001,,2013-01-22 22:53:00,
2013-01-22 16:02:00,22.0,22.0,-100.00,North,2,0.0,2.0,98,-99.99,,,0.00,145.860001,,2013-01-22 23:02:00,
2013-01-22 16:42:00,23.0,22.0,-100.00,ENE,61,0.0,2.0,97,-99.99,,,0.00,74.730003,,2013-01-22 23:42:00,
2013-01-22 16:53:00,23.0,22.0,-100.00,ENE,61,0.0,2.0,97,-99.99,,,0.00,74.730003,,2013-01-22 23:53:00,
2013-01-22 17:02:00,23.0,22.0,-100.00,ENE,61,0.0,2.0,97,-99.99,,,0.00,74.730003,,2013-01-23 00:02:00,
2013-01-22 17:12:00,23.0,22.0,-100.00,ENE,61,0.0,2.0,97,-99.99,,,0.00,74.730003,,2013-01-23 00:12:00,
2013-01-22 17:42:00,22.0,21.0,-100.00,ENE,59,1.0,2.0,98,-99.99,,,0.00,10.810000,,2013-01-23 00:42:00,
2013-01-22 17:52:00,22.0,21.0,-100.00,ENE,59,1.0,2.0,98,-99.99,,,0.00,10.810000,,2013-01-23 00:52:00,
2013-01-22 18:02:00,22.0,21.0,-100.00,ENE,59,1.0,2.0,98,-99.99,,,0.00,10.810000,,2013-01-23 01:02:00,
2013-01-22 18:12:00,22.0,21.0,-100.00,ENE,59,1.0,2.0,98,-99.99,,,0.00,10.810000,,2013-01-23 01:12:00,
2013-01-22 18:43:00,21.0,20.0,-100.00,NNE,16,2.0,4.0,97,-99.99,,,-99.99,0.000000,,2013-01-23 01:43:00,
2013-01-22 18:53:00,21.0,20.0,-100.00,NNE,16,2.0,4.0,97,-99.99,,,-99.99,0.000000,,2013-01-23 01:53:00,
2013-01-22 19:03:00,21.0,20.0,-100.00,NNE,16,2.0,4.0,97,-99.99,,,-99.99,0.000000,,2013-01-23 02:03:00,
2013-01-22 19:12:00,21.0,20.0,-100.00,NNE,16,2.0,4.0,97,-99.99,,,-99.99,0.000000,,2013-01-23 02:12:00,
2013-01-22 19:42:00,19.0,18.0,-100.00,NNE,21,2.0,4.0,96,-99.99,,,-99.99,0.000000,,2013-01-23 02:42:00,
2013-01-22 19:53:00,19.0,18.0,-100.00,NNE,21,2.0,4.0,96,-99.99,,,-99.99,0.000000,,2013-01-23 02:53:00,
2013-01-22 20:03:00,19.0,18.0,-100.00,NNE,21,2.0,4.0,96,-99.99,,,-99.99,0.000000,,2013-01-23 03:03:00,
2013-01-22 20:12:00,19.0,18.0,-100.00,NNE,21,2.0,4.0,96,-99.99,,,-99.99,0.000000,,2013-01-23 03:12:00,
2013-01-22 20:32:00,20.0,19.0,-100.00,NNE,20,2.0,2.0,97,-99.99,,,0.00,0.000000,,2013-01-23 03:32:00,
2013-01-22 20:42:00,20.0,19.0,-100.00,NNE,20,2.0,2.0,97,-99.99,,,0.00,0.000000,,2013-01-23 03:42:00,
2013-01-22 20:53:00,20.0,19.0,-100.00,NNE,20,2.0,2.0,97,-99.99,,,0.00,0.000000,,2013-01-23 03:53:00,
2013-01-22 21:03:00,20.0,19.0,-100.00,NNE,20,2.0,2.0,97,-99.99,,,0.00,0.000000,,2013-01-23 04:03:00,
2013-01-22 21:12:00,20.0,19.0,-100.00,NNE,20,2.0,2.0,97,-99.99,,,0.00,0.000000,,2013-01-23 04:12:00,
2013-01-22 21:32:00,19.0,18.0,-100.00,NE,53,2.0,3.0,97,-99.99,,,-99.99,0.000000,,2013-01-23 04:32:00,
2013-01-22 21:43:00,19.0,18.0,-100.00,NE,53,2.0,3.0,97,-99.99,,,-99.99,0.000000,,2013-01-23 04:43:00,
2013-01-22 21:53:00,19.0,18.0,-100.00,NE,53,2.0,3.0,97,-99.99,,,-99.99,0.000000,,2013-01-23 04:53:00,
2013-01-22 22:03:00,19.0,18.0,-100.00,NE,53,2.0,3.0,97,-99.99,,,-99.99,0.000000,,2013-01-23 05:03:00,
2013-01-22 22:12:00,19.0,18.0,-100.00,NE,53,2.0,3.0,97,-99.99,,,-99.99,0.000000,,2013-01-23 05:12:00,
2013-01-22 22:33:00,15.0,14.0,-100.00,NNE,18,3.0,4.0,94,-99.99,,,-99.99,0.000000,,2013-01-23 05:33:00,
2013-01-22 22:43:00,15.0,14.0,-100.00,NNE,18,3.0,4.0,94,-99.99,,,-99.99,0.000000,,2013-01-23 05:43:00,
2013-01-22 22:53:00,15.0,14.0,-100.00,NNE,18,3.0,4.0,94,-99.99,,,-99.99,0.000000,,2013-01-23 05:53:00,
2013-01-22 23:02:00,15.0,14.0,-100.00,NNE,18,3.0,4.0,94,-99.99,,,-99.99,0.000000,,2013-01-23 06:02:00,
2013-01-22 23:12:00,15.0,14.0,-100.00,NNE,18,3.0,4.0,94,-99.99,,,-99.99,0.000000,,2013-01-23 06:12:00,
2013-01-22 23:42:00,15.0,14.0,-100.00,North,0,0.0,0.0,94,-99.99,,,-99.99,0.000000,,2013-01-23 06:42:00,
2013-01-22 23:53:00,15.0,14.0,-100.00,North,0,0.0,0.0,94,-99.99,,,-99.99,0.000000,,2013-01-23 06:53:00,